Location: Cadelbosco
(44.7667°N, 10.6000°E)
Time: 16:37:34
(UTC+00:00)

Daily predictions for brighter satellites

Satellite Brightness Start Highest point End
(mag) Time Altitude Azimuth Time Altitude Azimuth Time Altitude Azimuth
Cosmos 676 Rocket 4.1 19:33:19 10° NNW 19:38:41 81° ENE 19:44:01 10° SSE
Cosmos 1954 Rocket 4.1 19:33:35 10° NNW 19:38:57 83° ENE 19:44:16 10° SSE
Ariane Rocket 3.2 19:35:35 10° S 19:40:40 77° WSW 19:45:48 10° NNW
Okean 2 Rocket 4.2 19:37:15 10° NNW 19:41:34 46° W 19:45:53 10° SSW
BREEZE-M DEB (TANK) 3.9 19:39:16 10° WNW 19:44:30 38° N 19:46:45 10° E
Cosmos 1842 3.9 19:43:30 10° SSW 19:47:23 61° W 19:51:19 10° N
Cosmos 292 Rocket 3.8 19:43:03 10° S 19:47:49 62° ESE 19:52:35 10° NNE
IGS 5A 3.5 19:44:04 10° SSE 19:48:12 73° ENE 19:52:23 10° N
SL-16 R/B 2.2 19:44:19 10° SSW 19:49:54 67° ESE 19:55:33 10° NNE
Cosmos 2360 Rocket 3.0 19:45:28 10° SSE 19:50:20 31° ESE 19:55:13 10° NE
Cosmos 2322 Rocket 2.4 19:46:34 10° S 19:52:06 55° ESE 19:57:40 10° NNE
Genesis I 3.3 19:49:00 10° SW 19:52:50 83° NW 19:56:48 10° NE
Resurs 01 Rocket 1.7 19:50:47 10° SSE 19:55:11 89° WSW 19:59:37 10° NNW
Cosmos 1461 4.2 19:51:58 10° NNW 19:55:46 30° NE 19:59:24 10° ESE
OBJECT-B 3.6 19:54:06 10° SW 19:56:17 17° W 19:58:28 10° NW
USA 81 4.2 19:51:31 10° N 19:56:44 58° E 20:01:55 10° SSE
USA 245 4.5 19:53:09 10° SE 19:57:43 50° ENE 20:03:13 10° N
Cosmos 1975 Rocket 3.6 19:58:28 10° SSE 20:02:31 39° E 20:06:37 10° NNE
Cosmos 1470 3.2 20:01:43 10° NNW 20:05:40 62° W 20:09:33 10° S
Meteor 1-21 4.4 20:01:02 10° SSW 20:06:43 82° W 20:12:22 10° N
SPOT 5 4.0 20:02:18 10° SE 20:06:46 32° ENE 20:11:08 10° N
Cosmos 1674 3.4 20:03:37 10° SSE 20:07:00 35° E 20:10:24 10° NNE
ATLAS CENTAUR R/B 3.5 20:04:27 10° N 20:07:42 20° NE 20:11:04 10° E
COSMOS 2428 4.5 20:06:24 10° SE 20:08:58 14° E 20:11:42 10° ENE
Cosmos 2237 4.3 20:08:03 10° S 20:13:37 58° ESE 20:19:12 10° NNE
Terra 3.2 20:10:29 11° ESE 20:14:13 26° ENE 20:18:08 10° N
Cosmos 1726 3.2 20:15:26 10° NNW 20:18:53 41° W 20:22:19 10° SSW
Lacrosse 5 2.4 20:15:47 10° WNW 20:20:41 51° SW 20:24:51 14° SSE
Cosmos 1315 Rocket 3.7 20:17:31 10° NNW 20:21:31 48° W 20:25:28 10° S
Cosmos 1452 Rocket 3.6 20:20:14 10° SSW 20:25:31 84° WNW 20:30:50 10° NNE
Cosmos 1844 Rocket 3.0 20:20:47 10° NNW 20:26:23 58° ENE 20:30:54 16° SE
SL-8 R/B 3.9 20:23:26 10° WNW 20:28:14 73° NNE 20:33:01 10° ESE
Cosmos 2100 Rocket 4.1 20:24:32 10° N 20:30:55 70° E 20:36:23 14° SSE
ARIANE 5 R/B 2.7 20:29:10 16° SSE 20:32:42 70° ENE 20:37:11 10° N
NOSS 3-2 (C) 4.4 20:28:13 10° WSW 20:33:43 50° NW 20:40:06 10° NNE
Cosmos 1340 3.8 20:32:11 19° SE 20:33:52 26° E 20:37:03 10° NE
Cosmos 1850 Rocket 4.1 20:30:39 10° NNW 20:35:59 84° WSW 20:40:12 16° SSE
FALCON 9 DEB 3.0 20:34:13 10° SW 20:37:39 89° SE 20:41:05 10° ENE
ATLAS 3B R/B 3.0 20:31:46 10° S 20:37:43 39° ESE 20:43:51 10° NE
Cosmos 1908 3.2 20:34:30 10° N 20:38:23 71° E 20:40:58 20° SSE
SPOT 1/Viking Rocket 3.9 20:33:46 11° S 20:38:44 65° WSW 20:43:52 10° NNW
Cosmos 2263 Rocket 3.9 20:34:45 10° NW 20:39:23 26° WSW 20:43:59 10° SSW
FALCON 9 DEB 3.8 20:40:01 25° SSE 20:40:30 26° SE 20:43:09 10° ENE
Geosat 4.0 20:37:26 18° SSE 20:41:15 82° ENE 20:46:19 10° NNW
Spot 2 Rocket 3.5 20:40:28 15° S 20:44:42 80° WSW 20:49:48 10° NNW
Cosmos 1544 Rocket 3.7 20:41:06 10° N 20:45:33 61° E 20:48:22 21° SSE
CZ-2C R/B 4.5 20:41:03 10° N 20:45:44 57° WNW 20:50:24 10° SSW
Lacrosse 5 rocket 0.9 20:44:29 10° SW 20:48:07 59° SE 20:51:40 10° NE
ERS-1 Rocket 3.0 20:44:31 19° SSE 20:48:12 76° ENE 20:53:15 10° N
Cosmos 2173 Rocket 4.1 20:42:30 10° N 20:48:55 88° E 20:54:10 16° S
Cosmos 2333 4.4 20:43:44 10° S 20:49:16 51° ESE 20:54:49 10° NE
Cosmos 1331 Rocket 4.0 20:44:07 10° SSW 20:49:19 72° ESE 20:54:35 10° NNE
FALCON 9 DEB 3.6 20:50:01 30° SE 20:50:01 30° SE 20:52:40 10° ENE
Cosmos 1455 Rocket 3.2 20:45:56 10° NNW 20:50:24 73° W 20:53:47 17° S
Cosmos 2016 Rocket 4.1 20:45:58 10° N 20:52:02 62° ENE 20:56:18 20° SSE
BREEZE-M DEB (TANK) 1.5 20:57:43 10° SW 21:00:07 70° SSE 21:04:40 10° ENE
Cosmos 2333 Rocket 2.4 20:55:53 15° S 21:00:32 52° ESE 21:06:05 10° NE
USA 215 3.7 20:55:42 10° ENE 21:01:43 38° SE 21:07:42 10° SSW
Cosmos 1725 Rocket 4.0 20:58:02 10° N 21:04:12 67° E 21:08:13 23° SSE
Cosmos 1626 2.2 21:04:15 19° SSW 21:06:44 75° W 21:10:26 10° N
Cosmos 1953 3.2 21:03:39 10° NNW 21:07:33 46° W 21:10:22 17° SSW
Cosmos 1302 Rocket 4.2 21:04:49 21° S 21:08:14 54° ESE 21:13:21 10° NNE
SL-14 R/B 3.2 21:08:37 26° S 21:10:48 75° E 21:14:50 10° NNE
Meteor 2-10 Rocket 4.4 21:06:39 10° N 21:11:15 33° ENE 21:13:41 22° ESE
Cosmos 2219 Rocket 2.3 21:07:38 19° S 21:11:36 54° ESE 21:17:08 10° NE
Cosmos 1844 3.7 21:07:47 10° NNW 21:13:22 77° WSW 21:16:41 25° SSE
Cosmos 1536 Rocket 3.5 21:15:05 27° S 21:17:30 73° E 21:21:57 10° NNE
Cosmos 1802 Rocket 4.2 21:12:48 10° NNW 21:19:03 71° W 21:23:39 19° S
CZ-4B DEB 4.2 21:19:02 44° S 21:19:56 83° WSW 21:23:07 10° NNW
Meteor 1-24 Rocket 3.8 21:21:07 28° SSE 21:23:49 56° E 21:29:09 10° NNE
DNEPR-1 R/B 3.5 21:20:28 10° NNW 21:24:42 74° NE 21:26:37 32° SE
Cosmos 1025 Rocket 3.9 21:22:43 13° SSW 21:26:23 48° WNW 21:30:38 10° N
Cosmos 2237 Rocket 3.5 21:27:21 21° ESE 21:28:21 22° E 21:32:34 10° NE
Cosmos 389 Rocket 3.6 21:26:38 10° NNE 21:29:40 28° ENE 21:30:14 27° E
Cosmos 2360 Rocket 3.3 21:28:47 10° SW 21:34:08 43° WNW 21:39:32 10° NNE
Cosmos 1461 4.0 21:31:05 10° NW 21:34:48 31° WSW 21:36:05 25° SSW
USA 267 4.2 21:29:21 10° E 21:35:30 45° NNE 21:41:39 10° NW
Cosmos 2228 3.6 21:31:14 10° N 21:35:30 47° ENE 21:36:56 34° SE
Cosmos 2322 Rocket 4.3 21:31:40 10° WSW 21:36:28 27° NW 21:41:18 10° N
Cosmos 1486 Rocket 4.3 21:37:46 10° NNW 21:42:55 58° ENE 21:45:12 32° SE
SPOT 5 4.2 21:41:31 17° SSW 21:44:46 34° W 21:49:17 10° NNW
Cosmos 1455 3.5 21:41:44 10° NNE 21:45:01 26° ENE 21:45:44 25° E
ATLAS CENTAUR R/B 1.6 21:42:36 10° NW 21:46:57 67° WSW 21:48:22 42° S
Cosmos 968 Rocket 3.4 21:46:19 10° NNW 21:51:28 89° ENE 21:53:28 38° SSE
Terra 2.8 21:49:22 23° SSW 21:51:46 38° W 21:56:13 10° NNW
COSMOS 2428 2.7 21:48:21 21° SSW 21:52:22 90° WNW 21:58:10 10° NNE
Cosmos 1300 3.5 21:49:42 10° NNW 21:53:21 44° W 21:54:30 33° SW
Cosmos 2322 4.1 21:48:40 10° SW 21:54:15 62° WNW 21:59:53 10° NNE
FALCON 9 DEB 2.8 21:54:51 62° WSW 21:55:18 81° NNW 21:58:27 10° NE
Cosmos 1992 Rocket 4.1 21:54:03 37° SSE 21:55:53 59° ESE 22:01:02 10° NNE
Uosat 12 SS-18 rocket 4.0 21:54:41 29° SSW 21:56:53 85° ESE 22:01:51 10° NE
ATLAS CENTAUR R/B 3.6 21:59:32 30° SE 22:00:37 32° ESE 22:09:16 10° NE
Cosmos 405 4.5 21:58:02 10° NW 22:00:58 26° W 22:01:49 24° WSW
Cosmos 2278 Rocket 2.6 21:55:46 10° NNW 22:01:22 57° ENE 22:04:01 30° SE
Cosmos 2058 Rocket 3.9 22:02:02 10° N 22:06:13 39° ENE 22:07:18 33° ESE
Cosmos 1844 Rocket 4.4 22:05:30 10° NW 22:09:50 23° W 22:12:33 16° SW
SL-8 R/B 4.2 22:06:09 10° WNW 22:10:37 39° SW 22:10:57 39° SSW
Cosmos 1346 Rocket 2.9 22:11:16 48° SW 22:12:16 71° W 22:16:18 10° N
Cosmos 967 Rocket 4.5 22:06:26 10° NW 22:12:48 78° WSW 22:15:34 36° SSE
GEOS 3 Rocket 3.6 22:11:18 37° SE 22:13:35 90° N 22:18:57 10° NW
Cosmos 1726 Rocket 3.5 22:09:22 10° N 22:13:51 77° E 22:14:53 52° SSE
Cosmos 2233 Rocket 4.4 22:08:12 10° NNW 22:14:11 56° W 22:17:17 29° SSW
FALCON 9 DEB 4.1 22:13:01 10° W 22:15:59 41° NNW 22:18:57 10° NE
NOSS 0 Rocket 3.9 22:16:43 33° SSW 22:19:41 76° ESE 22:25:55 10° NNE
FALCON 9 DEB 3.8 22:18:01 22° W 22:19:45 48° NNW 22:22:48 10° NE
SL-4 R/B 3.0 22:22:18 30° E 22:22:18 30° E 22:24:24 10° ENE
Cosmos 1513 Rocket 4.5 22:18:03 10° N 22:24:08 72° E 22:26:33 38° SSE
FALCON 9 DEB 4.3 22:22:31 10° W 22:25:27 38° NNW 22:28:24 10° NE
Lacrosse 5 rocket 3.4 22:24:26 10° W 22:27:25 24° NNW 22:30:24 10° NNE
Cosmos 1606 Rocket 3.9 22:23:49 10° NNW 22:28:13 58° W 22:29:16 45° SW
ATLAS 3B R/B 3.5 22:21:56 10° WSW 22:28:16 49° NW 22:34:51 10° NNE
Cosmos 1892 Rocket 3.5 22:29:33 56° S 22:30:28 89° WSW 22:34:57 10° N
SJ 16-02 3.6 22:29:01 10° NNE 22:32:03 18° ENE 22:34:22 13° E
ALOS 2 2.7 22:32:40 52° SE 22:33:35 68° ENE 22:37:58 10° N
Cosmos 1980 3.6 22:35:59 39° SSW 22:38:14 85° ESE 22:43:57 10° NNE
Cosmos 1441 Rocket 3.4 22:38:20 56° E 22:38:23 56° E 22:42:10 10° NNE
Cosmos 1703 3.3 22:39:40 62° ESE 22:39:49 62° E 22:43:45 10° NNE
Spot 4 4.0 22:39:08 46° SSW 22:40:19 60° W 22:45:04 10° NNW
Meteor 2-1 Rocket 4.1 22:34:52 10° N 22:40:24 79° E 22:42:13 44° SSE
Cosmos 1943 Rocket 3.9 22:36:14 10° N 22:40:49 26° NE 22:45:00 12° ESE
Cosmos 1503 Rocket 4.0 22:36:56 10° NNW 22:42:20 77° WSW 22:43:52 48° S
USA 215 3.5 22:38:30 10° NE 22:44:59 71° NNW 22:51:30 10° WSW
Cosmos 2333 Rocket 4.0 22:40:10 10° WSW 22:45:05 29° NW 22:50:01 10° N
SAR-Lupe-2 4.0 22:47:13 10° NNE 22:50:27 52° E 22:50:27 52° E
Cosmos 1328 4.0 22:52:30 53° E 22:52:31 53° E 22:56:20 10° NNE
Cosmos 2219 Rocket 4.0 22:51:06 10° WSW 22:55:53 27° NW 23:00:41 10° N
Cosmos 1464 Rocket 4.1 22:53:17 10° NNW 22:59:36 69° W 23:02:03 39° SSW
Cosmos 1626 Rocket 3.6 22:59:58 58° SE 23:00:33 66° E 23:04:59 10° NNE
Cosmos 1867 4.2 22:55:50 10° NW 23:00:56 40° WSW 23:01:49 37° SW
Cosmos 1607 3.9 22:56:26 10° NW 23:02:49 73° WSW 23:05:04 42° SSE
Cosmos 2346 Rocket 4.4 23:00:49 40° SSW 23:03:12 78° W 23:09:24 10° N
Thor Agena Rocket 3.8 22:58:17 10° NNE 23:03:27 55° ESE 23:04:38 45° SE
COBE Rocket 4.4 23:04:31 40° SW 23:05:42 49° W 23:10:33 10° NNW
Cosmos 1602 Rocket 3.8 23:06:53 51° SE 23:07:27 55° E 23:11:52 10° NNE
SL-16 R/B 2.6 23:06:18 42° SE 23:07:32 49° ESE 23:12:59 10° NE
PSLV R/B 4.3 23:05:24 10° NNE 23:09:29 40° E 23:09:53 39° ESE
Cosmos 2237 Rocket 2.6 23:09:08 29° SW 23:11:56 58° WNW 23:17:31 10° NNE
MTI 4.5 23:11:44 10° N 23:14:12 49° NNW 23:14:12 49° NNW
Cosmos 1758 Rocket 4.3 23:14:18 37° ESE 23:14:54 39° E 23:19:01 10° NNE
Meteor 1-4 Rocket 2.5 23:13:33 10° N 23:16:45 73° N 23:16:45 73° N
USA 267 3.1 23:14:47 30° SE 23:18:15 75° SW 23:24:50 10° NW
Cosmos 1816 Rocket 4.4 23:17:16 42° SSW 23:19:32 82° W 23:25:41 10° N
Cosmos 1455 3.9 23:17:29 10° NW 23:20:27 22° W 23:20:36 22° W
Cosmos 2369 Rocket 3.8 23:18:23 10° N 23:23:23 30° NE 23:28:21 10° ESE
NOSS 2-3 (C) 4.2 23:31:45 39° ESE 23:31:45 39° ESE 23:35:55 10° NE
Cosmos 1777 Rocket 4.0 23:26:55 10° NNW 23:32:11 68° WSW 23:33:25 50° SSW
Cosmos-2242 3.5 23:28:07 10° N 23:32:26 52° ENE 23:33:23 43° ESE
Cosmos 2034 Rocket 4.3 23:27:37 10° NNW 23:33:38 53° W 23:35:44 37° SW
Cosmos 1174 4.5 23:35:00 47° S 23:36:36 73° ESE 23:41:27 10° NE
Cosmos 1408 3.9 23:37:17 29° E 23:37:22 29° E 23:40:35 10° NNE
Cosmos 2297 3.6 23:38:45 10° NNW 23:44:26 89° WSW 23:46:31 41° SSE
Cosmos 1812 Rocket 3.5 23:40:26 10° NNW 23:44:45 67° W 23:45:17 60° SW
Cosmos 2278 Rocket 3.6 23:40:42 10° NW 23:44:59 23° W 23:45:51 22° WSW
Meteor 1-11 4.2 23:44:20 44° SSW 23:46:10 77° WNW 23:51:46 10° N
Meteor 1-27 4.2 23:42:47 10° N 23:48:23 77° E 23:50:25 40° SSE
Cosmos 724 4.3 23:42:22 10° NW 23:48:33 77° WSW 23:50:57 39° SSE
